Weather History for Tetuan, Morocco

Change the Weather History Date:

Saturday, October 27, 2012

  Actual Average Record
Temperature  
Mean Temperature 68 °F -  
Max Temperature 73 °F 67 °F 77 °F (1997)
Min Temperature 62 °F 56 °F 53 °F (2010)
Cooling Degree Days 2    
Growing Degree Days 18 (Base 50)    
Moisture  
Dew Point 58 °F    
Average Humidity 72    
Maximum Humidity 94    
Minimum Humidity 50    
Precipitation  
Precipitation 0.16 in - - ()
Sea Level Pressure  
Sea Level Pressure 29.77 in    
Wind  
Wind Speed 10 mph ()    
Max Wind Speed 18 mph    
Max Gust Speed 30 mph    
Visibility 5.7 miles    
Events      
Averages and records for this station are not official NWS values.
T = Trace of Precipitation, MM = Missing Value Source: Averaged Metar Reports

Daily Weather History Graph

Daily Weather History Graph

Search for Another Location

Airport:

Trip Planner

Search our weather history database for the weather conditions in past years. The results will help you decide how hot, cold, wet, or windy it might be!

Date:

Astronomy

Oct. 27, 2012 Rise Set
Actual Time 6:38 AM WET 5:31 PM WET
Civil Twilight 6:12 AM WET 5:57 PM WET
Nautical Twilight 5:42 AM WET 6:27 PM WET
Astronomical Twilight 5:12 AM WET 6:56 PM WET
Moon 4:07 PM WET (10/27) 4:23 AM WET (10/27)
Length of Visible Light 11h 44m
Length of Day
10h 52m
Waxing Gibbous, 95% of the Moon is Illuminated
Oct 27
Waxing Gibbous
Oct 29
Full
Nov 7
Last Quarter
Nov 13
New
Nov 20
First Quarter

Hourly Weather History & Observations

Time (WET) Temp. Dew Point Humidity Pressure Visibility Wind Dir Wind Speed Gust Speed Precip Events Conditions
12:00 AM 65 °F 60 °F 78% 29.75 in 6 mi WSW 10.4 mph - -  
12:00 AM 64.4 °F 59.0 °F 83% 29.74 in 6.2 mi WSW 10.4 mph - N/A   Unknown
1:00 AM 64.4 °F 59.0 °F 83% 29.74 in 6.2 mi WSW 6.9 mph - N/A   Unknown
2:00 AM 64.4 °F 57.2 °F 77% 29.71 in 6.2 mi SW 6.9 mph - N/A   Unknown
3:00 AM 65 °F 57 °F 68% 29.73 in 6 mi WSW 9.2 mph - -  
3:00 AM 64.4 °F 57.2 °F 77% 29.71 in 6.2 mi WSW 9.2 mph - N/A   Unknown
4:00 AM 66.2 °F 57.2 °F 73% 29.71 in 6.2 mi WSW 6.9 mph - N/A   Unknown
5:00 AM 66.2 °F 57.2 °F 73% 29.71 in 6.2 mi WSW 11.5 mph - N/A   Unknown
6:00 AM 62.6 °F 59.0 °F 88% 29.74 in - WSW 17.3 mph - N/A   Unknown
7:00 AM 62.6 °F 60.8 °F 94% 29.77 in 1.2 mi West 15.0 mph - N/A   Unknown
8:00 AM 64.4 °F 60.8 °F 88% 29.77 in 4.3 mi WSW 15.0 mph - N/A   Partly Cloudy
9:00 AM 66 °F 60 °F 76% 29.80 in 4 mi WSW 16.1 mph - -   Mostly Cloudy
9:00 AM 66.2 °F 60.8 °F 83% 29.80 in 4.3 mi WSW 16.1 mph - N/A   Partly Cloudy
10:00 AM 68.0 °F 60.8 °F 78% 29.80 in 6.2 mi WSW 9.2 mph - N/A   Mostly Cloudy
11:00 AM 68.0 °F 59.0 °F 73% 29.80 in 6.2 mi West 10.4 mph - N/A   Mostly Cloudy
12:00 PM 70 °F 58 °F 56% 29.80 in 6 mi WNW 10.4 mph - -   Partly Cloudy
12:00 PM 69.8 °F 57.2 °F 64% 29.77 in 6.2 mi WNW 10.4 mph 21.9 mph N/A   Scattered Clouds
1:00 PM 71.6 °F 55.4 °F 57% 29.77 in 6.2 mi West 15.0 mph - N/A   Scattered Clouds
2:00 PM 73.4 °F 53.6 °F 50% 29.74 in 6.2 mi West 17.3 mph - N/A   Scattered Clouds
3:00 PM 73.4 °F 53.6 °F 50% 29.77 in 6.2 mi West 17.3 mph 29.9 mph N/A   Scattered Clouds
4:00 PM 71.6 °F 53.6 °F 53% 29.77 in 6.2 mi West 18.4 mph - N/A   Scattered Clouds
5:00 PM 68.0 °F 55.4 °F 64% 29.77 in 6.2 mi West 15.0 mph - N/A   Scattered Clouds
6:00 PM 67 °F 56 °F 61% 29.82 in 6 mi West 12.7 mph - -   Partly Cloudy
6:00 PM 66.2 °F 57.2 °F 73% 29.80 in 6.2 mi West 12.7 mph - N/A   Scattered Clouds
7:00 PM 66.2 °F 57.2 °F 73% 29.83 in 6.2 mi WSW 12.7 mph - N/A   Scattered Clouds
8:00 PM 66.2 °F 55.4 °F 68% 29.83 in 6.2 mi West 10.4 mph - N/A   Scattered Clouds
9:00 PM 66.2 °F 57.2 °F 73% 29.83 in 6.2 mi West 11.5 mph - N/A   Scattered Clouds